This is the latest recevied weather packets stored in our database for station/object DB8NZ-22. If no packets are shown the sender has not sent any weather packets the latest 10 day(s).
| Time | Temp. | Humidity | Pressure | Rain* | Wind** | Luminosity | Snow |
|---|---|---|---|---|---|---|---|
| 1777475678 | 28.33° C | 14% | 1023.6 hPa | - | - | - | - |
| 1777474778 | 28.33° C | 14% | 1023.6 hPa | - | - | - | - |
| 1777473877 | 28.89° C | 14% | 1023.6 hPa | - | - | - | - |
| 1777472977 | 28.89° C | 14% | 1023.8 hPa | - | - | - | - |
| 1777472077 | 28.33° C | 15% | 1023.7 hPa | - | - | - | - |
| 1777471176 | 27.78° C | 15% | 1023.6 hPa | - | - | - | - |
| 1777470276 | 27.22° C | 15% | 1023.8 hPa | - | - | - | - |
| 1777469376 | 26.67° C | 16% | 1023.7 hPa | - | - | - | - |
| 1777468476 | 26.11° C | 17% | 1023.6 hPa | - | - | - | - |
| 1777467576 | 25.56° C | 17% | 1023.8 hPa | - | - | - | - |
| 1777467066 | 25° C | 18% | 1024 hPa | - | - | - | - |
| 1777466166 | 24.44° C | 18% | 1023.8 hPa | - | - | - | - |
| 1777465266 | 23.89° C | 18% | 1023.9 hPa | - | - | - | - |
| 1777464366 | 23.89° C | 18% | 1023.9 hPa | - | - | - | - |
| 1777463466 | 23.89° C | 19% | 1023.9 hPa | - | - | - | - |
| 1777462565 | 23.33° C | 18% | 1024.1 hPa | - | - | - | - |
| 1777461665 | 22.78° C | 20% | 1024 hPa | - | - | - | - |
| 1777460765 | 22.22° C | 20% | 1024.1 hPa | - | - | - | - |
| 1777459865 | 22.22° C | 21% | 1024.2 hPa | - | - | - | - |
| 1777458965 | 21.11° C | 21% | 1024.4 hPa | - | - | - | - |
| 1777458065 | 21.11° C | 22% | 1024.3 hPa | - | - | - | - |
| 1777457165 | 20° C | 22% | 1024.4 hPa | - | - | - | - |
| 1777456265 | 20° C | 24% | 1024.4 hPa | - | - | - | - |
| 1777455365 | 19.44° C | 23% | 1024.4 hPa | - | - | - | - |
| 1777454465 | 18.89° C | 24% | 1024.4 hPa | - | - | - | - |
* Rain since midnight (hover to see other rain measurements)
** Current wind speed in m/s (hover to see current wind gust speed)